Simultaneous Nadir Overpasses (SNOs) Predictions

Prediction of SNOs between AQUA and GOES-15 Satellite Orbit:

Table of predicted SNOs for the next 14.0 days since TLE Epoch: 4/25/2025
Index Date Time (AQUA) AQUA Lat,Lon GOES-15 Lat,Lon Distance(km) Time Diff (sec)
1 04/26/2025 10:17:22 0.70, 65.03 -0.06, 61.46 405.78 80
2 04/26/2025 22:36:36 0.25, 60.37 0.04, 61.45 121.91 80
3 04/28/2025 22:16:31 -0.77, 65.29 0.04, 61.47 434.76 80
4 04/29/2025 10:35:53 -0.20, 60.61 -0.03, 61.49 100.06 80
5 05/01/2025 10:15:47 0.84, 65.53 -0.03, 61.52 456.24 80
6 05/01/2025 22:34:59 0.13, 60.89 0.02, 61.52 71.90 80
7 05/03/2025 22:14:51 -0.87, 65.82 0.03, 61.55 485.14 80
8 05/04/2025 10:34:12 -0.13, 61.15 -0.01, 61.57 49.23 80
9 05/06/2025 22:33:16 0.05, 61.43 0.01, 61.61 19.70 80
10 05/09/2025 10:32:27 0.03, 61.69 0.01, 61.65 5.00 80
